[[{"header":{"parameterUnit":"m.s-1","parameterCategory":1,"la1":30.2991,"la2":30.254,"lo1":-89.0895,"lo2":-89.0444,"dy":0.0017,"dx":0.0017,"nx":28,"ny":28,"refTime":"2023-10-18T09:00:00:Z","depth":0,"parameterNumber":2,"parameterNumberName":"U-component_of_WINDS"},"data":[0,0,0,0,0,0,0,0,0,0,0,0,0,0,0,0,0,0,0,0,0,0,0,0,0,0,0,0,0,0,0,0,0,0,0,0,0,0,0,0,0,0,0,0,0,0,0,0,0,0,0,0,0,0,0,0,0,0,0.3851,0.3851,0,0.3871,0.3871,0.3871,0.3869,0.3869,0.3869,0.3868,0.3887,0.3888,0.3889,0,0,0,0,0,0,0,0,0,0,0,0,0,0.381,0.3811,0.3851,0.3851,0.3852,0.3871,0.3871,0.3871,0.3869,0.3869,0.3868,0.3868,0.3887,0.3888,0.3889,0,0,0,0,0,0,0,0,0,0,0,0,0,0.3828,0.3811,0.3851,0.3853,0.3853,0.3871,0.3871,0.3871,0.3869,0.3869,0.3868,0.3868,0.3887,0.3888,0.3889,0.3905,0,0,0.3893,0.3893,0,0,0,0,0,0,0,0,0.3827,0.383,0.3852,0.3853,0.3853,0.3867,0.3863,0.3883,0.3869,0.3863,0.3868,0.3868,0.3881,0.3882,0.3887,0.3906,0.3907,0.3893,0.3893,0.3894,0.3894,0,0,0,0,0,0,0,0.3826,0.3829,0.3859,0.3853,0.3853,0.3852,0.3854,0.3867,0.3874,0.3864,0.3864,0.3866,0.3881,0.3886,0.3887,0.3907,0.3893,0.3894,0.3894,0.3895,0.3939,0.394,0,0,0,0,0,0,0.3825,0.3828,0.3858,0.3859,0.3839,0.3853,0.3856,0.3863,0.3874,0.3875,0.3866,0.3866,0.3884,0.3886,0.3888,0.3907,0.3894,0.3895,0.3896,0.3939,0.3939,0.394,0,0,0,0,0,0,0.3824,0.3827,0.3857,0.3844,0.3847,0.3854,0.3863,0.3864,0.3869,0.3876,0.3877,0.387,0.3884,0.3886,0.3901,0.3908,0.3896,0.3897,0.3938,0.3939,0.394,0.3945,0,0,0,0,0,0,0.3822,0.3827,0.3834,0.3844,0.3848,0.387,0.3863,0.3864,0.3871,0.387,0.388,0.3881,0.3884,0.3899,0.3902,0.3909,0.3898,0.3938,0.3939,0.3939,0.3944,0.3946,0.3947,0,0,0,0,0,0.3821,0.3835,0.3834,0.3838,0.3857,0.3871,0.3873,0.3876,0.3871,0.3878,0.3882,0.3881,0.3907,0.3901,0.3904,0.3911,0.3937,0.3938,0.3939,0.3944,0.3946,0.3947,0,0,0,0,0,0,0.3825,0.3836,0.3836,0.3853,0.3861,0.387,0.3879,0.3878,0.3887,0.3886,0.3889,0.3891,0.3905,0.391,0.3903,0.3927,0.3921,0.3923,0.3923,0.3925,0.3927,0.3925,0.3899,0,0,0,0,0,0.3828,0.3839,0.3848,0.3862,0.3866,0.3872,0.3878,0.3879,0.3887,0.3891,0.3896,0.3904,0.3913,0.392,0.3929,0.3945,0.3947,0.3952,0.3953,0.3954,0.3956,0.3963,0.3965,0.3943,0.3943,0.3943,0,0,0.3834,0.3842,0.3848,0.3863,0.3869,0.388,0.3875,0.3886,0.3893,0.3892,0.3906,0.391,0.3919,0.3934,0.3941,0.3938,0.3962,0.3956,0.3957,0.3957,0.3964,0.3966,0.3968,0.3944,0.3944,0.3944,0,0,0.385,0.3858,0.387,0.3876,0.3886,0.3889,0.3892,0.3901,0.3904,0.3918,0.3917,0.3925,0.3942,0.3948,0.3953,0.397,0.3969,0.3973,0.3981,0.3988,0.3989,0.3991,0.3996,0.3998,0.3975,0.3975,0.3975,0,0.3857,0.3873,0.3876,0.3887,0.3893,0.3893,0.3904,0.391,0.3922,0.3926,0.3923,0.3943,0.3949,0.3965,0.3969,0.3973,0.3976,0.3972,0.3989,0.3991,0.3992,0.3997,0.3999,0.3975,0.3975,0.3975,0.3975,0,0.3879,0.389,0.3899,0.391,0.3917,0.3929,0.3933,0.3939,0.394,0.3944,0.3957,0.3964,0.3974,0.3978,0.3979,0.3993,0.3991,0.3989,0.3983,0.3994,0.3999,0.4001,0.3976,0.3976,0.3975,0.3975,0,0,0.3898,0.3911,0.3914,0.3919,0.3929,0.3937,0.3948,0.3958,0.3963,0.3971,0.3979,0.3993,0.3991,0.3996,0.3998,0.4004,0.4016,0.4001,0.4001,0.4002,0.4031,0.4032,0.4034,0.4015,0.4016,0.4016,0.403,0,0.3915,0.3934,0.3937,0.3954,0.3963,0.3963,0.3972,0.3979,0.3982,0.399,0.3994,0.4003,0.4,0.4003,0.4009,0.4013,0.4021,0.4012,0.4022,0.4022,0.4019,0.4036,0.4038,0.405,0.4031,0.4032,0.4032,0,0.3936,0.3944,0.3962,0.397,0.3974,0.3982,0.3991,0.3999,0.4006,0.4008,0.4014,0.4015,0.4025,0.4019,0.4033,0.4027,0.4031,0.4033,0.4034,0.4034,0.4027,0.4036,0.4055,0.4056,0.4035,0.4035,0.4035,0,0.3946,0.3962,0.3975,0.3979,0.3989,0.3994,0.3998,0.4005,0.4011,0.4018,0.4022,0.403,0.4035,0.4041,0.4044,0.404,0.4057,0.4052,0.4058,0.4058,0.4061,0.406,0.4079,0.4065,0.4065,0.4065,0.4065,0,0.3964,0.3974,0.3979,0.3987,0.3998,0.4001,0.4012,0.4016,0.4022,0.403,0.403,0.4037,0.4041,0.4048,0.405,0.406,0.4062,0.4064,0.4064,0.4063,0.4063,0.4065,0.4064,0.4066,0.4066,0.4065,0.4065,0,0.3977,0.3981,0.3994,0.4002,0.4004,0.4012,0.4019,0.4026,0.4029,0.4038,0.4041,0.4046,0.4054,0.4058,0.4068,0.4069,0.4081,0.4081,0.4078,0.4078,0.4084,0.4083,0.4104,0.4107,0.4092,0.4092,0.4092,0,0.3987,0.3995,0.4004,0.4009,0.4013,0.4022,0.4027,0.403,0.4036,0.4044,0.405,0.4058,0.4065,0.4079,0.4083,0.4091,0.409,0.4097,0.4091,0.409,0.4089,0.4088,0.4088,0.4098,0.4098,0.4098,0.4098,0,0.4004,0.4005,0.4013,0.4022,0.4028,0.4035,0.4042,0.4046,0.405,0.4056,0.4064,0.407,0.408,0.4089,0.4096,0.41,0.4099,0.41,0.4102,0.4101,0.4098,0.4099,0.408,0.4099,0.4099,0.4099,0.4099,0.4099,0.4015,0.4022,0.4029,0.4037,0.4042,0.4048,0.4055,0.4059,0.4066,0.4075,0.4076,0.4085,0.4092,0.4102,0.4106,0.4113,0.4111,0.4114,0.4114,0.4115,0.4114,0.4098,0.4114,0.4114,0.4114,0.4114,0.4114,0,0.4031,0.4035,0.4043,0.4052,0.4059,0.4058,0.4065,0.407,0.4078,0.4084,0.4091,0.4101,0.4108,0.4113,0.4121,0.4125,0.4125,0.4127,0.4126,0.4127,0.4116,0.4113,0.4127,0.4127,0.4127,0.4127,0.4127,0.4127,0.404,0.4051,0.4053,0.4066,0.407,0.4079,0.4083,0.4088,0.4093,0.4103,0.411,0.4113,0.4118,0.4126,0.4133,0.4134,0.4136,0.4138,0.4139,0.4129,0.4128,0.4126,0.4124,0.4139,0.4139,0.4149,0.4149,0.4149]},{"header":{"parameterUnit":"m.s-1","parameterCategory":1,"la1":30.2991,"la2":30.254,"lo1":-89.0895,"lo2":-89.0444,"dy":0.0017,"dx":0.0017,"nx":28,"ny":28,"refTime":"2023-10-18T09:00:00:Z","depth":0,"parameterNumber":3,"parameterNumberName":"V-component_of_WINDS"},"data":[0,0,0,0,0,0,0,0,0,0,0,0,0,0,0,0,0,0,0,0,0,0,0,0,0,0,0,0,0,0,0,0,0,0,0,0,0,0,0,0,0,0,0,0,0,0,0,0,0,0,0,0,0,0,0,0,0,0,3.5698,3.5698,0,3.5723,3.5723,3.5723,3.5659,3.5657,3.5655,3.5653,3.5675,3.5678,3.568,0,0,0,0,0,0,0,0,0,0,0,0,0,3.5591,3.5593,3.5698,3.5698,3.5699,3.5723,3.5723,3.5723,3.5659,3.5657,3.5654,3.5652,3.5674,3.5677,3.568,0,0,0,0,0,0,0,0,0,0,0,0,0,3.5629,3.5594,3.5698,3.567,3.5667,3.5723,3.5723,3.5724,3.566,3.5656,3.5653,3.5651,3.5673,3.5677,3.5681,3.5764,0,0,3.5692,3.5694,0,0,0,0,0,0,0,0,3.5627,3.5633,3.5673,3.5672,3.5669,3.5685,3.5694,3.5737,3.566,3.5662,3.5653,3.5649,3.5681,3.5684,3.5695,3.5765,3.5766,3.5692,3.5695,3.5696,3.5697,0,0,0,0,0,0,0,3.5624,3.5631,3.5708,3.5674,3.5671,3.5654,3.5656,3.5701,3.5688,3.5662,3.5657,3.5661,3.5679,3.5691,3.5695,3.5766,3.5692,3.5696,3.5698,3.5699,3.5903,3.5906,0,0,0,0,0,0,3.5626,3.563,3.5707,3.5708,3.564,3.5659,3.5661,3.5683,3.5687,3.5685,3.5664,3.5658,3.5686,3.569,3.5695,3.5791,3.5696,3.57,3.5702,3.59,3.5904,3.5908,0,0,0,0,0,0,3.5624,3.5633,3.5706,3.5668,3.5676,3.5664,3.5689,3.5685,3.5697,3.5689,3.5686,3.5679,3.5684,3.569,3.5747,3.5791,3.5701,3.5705,3.5896,3.5901,3.5906,3.5984,0,0,0,0,0,0,3.5621,3.5633,3.5666,3.5669,3.5678,3.5759,3.5691,3.5687,3.5704,3.5697,3.5702,3.57,3.5682,3.5742,3.5751,3.5794,3.5708,3.5892,3.5899,3.5904,3.5977,3.5991,3.6002,0,0,0,0,0,3.5617,3.5687,3.5668,3.5677,3.5719,3.5761,3.5766,3.5745,3.5708,3.5739,3.5734,3.57,3.5785,3.5748,3.5758,3.5803,3.5889,3.5897,3.5904,3.5972,3.5988,3.6002,0,0,0,0,0,0,3.5688,3.5686,3.5665,3.5738,3.575,3.575,3.579,3.5763,3.5785,3.5778,3.5749,3.5751,3.5812,3.5814,3.5773,3.5882,3.5831,3.584,3.5879,3.5895,3.5907,3.5904,3.5711,0,0,0,0,0,3.5712,3.5748,3.5744,3.5809,3.5816,3.5802,3.582,3.5802,3.5813,3.5818,3.5816,3.5828,3.5856,3.5876,3.5902,3.5978,3.5977,3.6014,3.6026,3.6036,3.6044,3.6081,3.6097,3.5931,3.5931,3.5931,0,0,3.5762,3.5765,3.579,3.5823,3.583,3.5866,3.5807,3.5848,3.5874,3.5824,3.5877,3.5877,3.5887,3.5953,3.5982,3.5956,3.609,3.6046,3.6054,3.6056,3.609,3.6106,3.612,3.5936,3.5935,3.5934,0,0,3.587,3.5878,3.5931,3.594,3.5952,3.5942,3.5955,3.5959,3.5957,3.601,3.5972,3.6002,3.6054,3.6062,3.6073,3.6184,3.6152,3.6193,3.6257,3.6294,3.6307,3.6318,3.6355,3.6369,3.6201,3.6202,3.6202,0,3.593,3.5984,3.5962,3.6005,3.6019,3.5977,3.6029,3.6038,3.6058,3.6068,3.6039,3.6101,3.6106,3.6171,3.6198,3.621,3.6222,3.6191,3.6307,3.6318,3.6329,3.6363,3.6378,3.6206,3.6206,3.6205,3.6205,0,3.6056,3.6094,3.6135,3.6155,3.6175,3.6222,3.6205,3.6228,3.6209,3.6201,3.6255,3.6259,3.6284,3.6299,3.628,3.6362,3.6345,3.6312,3.6259,3.635,3.6381,3.6395,3.6213,3.6211,3.621,3.6209,0,0,3.6208,3.6215,3.623,3.6238,3.6248,3.6276,3.6321,3.6346,3.6365,3.638,3.6415,3.6459,3.6429,3.6441,3.6424,3.6456,3.6541,3.6419,3.6419,3.6439,3.6627,3.665,3.6666,3.6521,3.6524,3.6526,3.6625,0,3.6313,3.6391,3.6371,3.6447,3.648,3.644,3.6479,3.6489,3.6483,3.651,3.6503,3.6534,3.6493,3.6499,3.653,3.6524,3.6577,3.6517,3.6551,3.6553,3.6547,3.6683,3.6707,3.6801,3.6638,3.664,3.6642,0,3.6445,3.6465,3.6545,3.6548,3.6561,3.6596,3.6617,3.6643,3.6653,3.6646,3.666,3.6635,3.6678,3.6627,3.6684,3.6643,3.6656,3.6655,3.6658,3.6658,3.6601,3.6684,3.6831,3.6844,3.6662,3.666,3.6659,0,3.6545,3.6592,3.6645,3.6654,3.6659,3.6684,3.6687,3.6694,3.671,3.6728,3.6737,3.676,3.6772,3.6789,3.6771,3.6736,3.683,3.6778,3.6823,3.6824,3.6843,3.6842,3.6991,3.6857,3.6856,3.6856,3.6856,0,3.6662,3.6712,3.669,3.6722,3.6776,3.6753,3.6806,3.6805,3.6811,3.6841,3.6808,3.6837,3.6812,3.6839,3.6825,3.6873,3.6879,3.6873,3.6868,3.6875,3.6875,3.6881,3.6873,3.686,3.6859,3.6858,3.6858,0,3.6782,3.6769,3.6824,3.6824,3.6825,3.6865,3.6864,3.6893,3.6886,3.6924,3.6932,3.6919,3.6949,3.6933,3.6963,3.6953,3.7015,3.7002,3.7011,3.7007,3.7053,3.7048,3.7209,3.7228,3.7084,3.7085,3.7087,0,3.6856,3.6893,3.6897,3.6915,3.6921,3.6951,3.6967,3.6945,3.6963,3.6976,3.7003,3.7029,3.7049,3.7097,3.709,3.7112,3.7099,3.7154,3.7101,3.7106,3.7096,3.7093,3.7095,3.7163,3.7165,3.7166,3.7167,0,3.6988,3.698,3.7005,3.7027,3.7046,3.7063,3.7076,3.7093,3.7071,3.7092,3.7122,3.7137,3.7168,3.7194,3.7213,3.7214,3.7187,3.7184,3.7196,3.7201,3.7204,3.72,3.7037,3.718,3.7179,3.7178,3.7177,3.7177,3.7086,3.7116,3.7123,3.7151,3.7158,3.7171,3.7198,3.7194,3.7218,3.7241,3.7227,3.7261,3.7268,3.7291,3.7296,3.7322,3.7299,3.7317,3.732,3.7324,3.7329,3.7202,3.7326,3.7325,3.7325,3.7325,3.7324,0,3.7214,3.7216,3.7242,3.7262,3.7283,3.7257,3.727,3.7289,3.7319,3.7329,3.7349,3.7382,3.7406,3.7401,3.7423,3.7445,3.7432,3.7451,3.7448,3.7448,3.7349,3.7336,3.746,3.746,3.746,3.746,3.746,3.746,3.7283,3.7331,3.7324,3.7376,3.7378,3.7411,3.742,3.7431,3.7438,3.7477,3.7497,3.7494,3.7497,3.7519,3.754,3.7537,3.7546,3.7569,3.7562,3.7469,3.7455,3.7442,3.7429,3.7571,3.7571,3.7658,3.7658,3.7659]}]]